This is the latest recevied weather packets stored in our database for station/object W7TTE. If no packets are shown the sender has not sent any weather packets the latest 10 day(s).
| Time | Temp. | Humidity | Pressure | Rain* | Wind** | Luminosity | Snow |
|---|---|---|---|---|---|---|---|
| 1788139584 | 103° F | 30% | 757.3 mmHg | 0 in | - | 24 W/m² | - |
| 1788139279 | 104° F | 30% | 757.3 mmHg | 0 in | - | 27 W/m² | - |
| 1788138978 | 104° F | 30% | 757.1 mmHg | 0 in | - | 32 W/m² | - |
| 1788138674 | 104° F | 30% | 757.3 mmHg | 0 in | - | 34 W/m² | - |
| 1788138370 | 104° F | 30% | 757.3 mmHg | 0 in | - | 38 W/m² | - |
| 1788138065 | 105° F | 30% | 757.4 mmHg | 0 in | - | 42 W/m² | - |
| 1788137759 | 105° F | 30% | 757.2 mmHg | 0 in | - | 40 W/m² | - |
| 1788137454 | 105° F | 30% | 757.4 mmHg | 0 in | - | 47 W/m² | - |
| 1788137150 | 105° F | 30% | 757.3 mmHg | 0 in | - | 55 W/m² | - |
| 1788136846 | 106° F | 30% | 757.3 mmHg | 0 in | - | 72 W/m² | - |
| 1788136542 | 106° F | 31% | 757.3 mmHg | 0 in | - | 82 W/m² | - |
| 1788136237 | 106° F | 30% | 757.5 mmHg | 0 in | - | 80 W/m² | - |
| 1788135936 | 105° F | 30% | 757.4 mmHg | 0 in | - | 97 W/m² | - |
| 1788135631 | 106° F | 30% | 757.5 mmHg | 0 in | - | 115 W/m² | - |
| 1788135327 | 106° F | 31% | 757.5 mmHg | 0 in | - | 125 W/m² | - |
| 1788135023 | 106° F | 31% | 757.5 mmHg | 0 in | - | 147 W/m² | - |
| 1788134720 | 106° F | 30% | 757.5 mmHg | 0 in | - | 153 W/m² | - |
| 1788134418 | 106° F | 31% | 757.5 mmHg | 0 in | - | 178 W/m² | - |
| 1788134118 | 107° F | 30% | 757.5 mmHg | 0 in | - | 199 W/m² | - |
| 1788133813 | 107° F | 31% | 757.6 mmHg | 0 in | - | 217 W/m² | - |
| 1788133508 | 107° F | 30% | 757.7 mmHg | 0 in | - | 228 W/m² | - |
| 1788133198 | 107° F | 30% | 757.6 mmHg | 0 in | - | 243 W/m² | - |
| 1788132893 | 108° F | 29% | 757.6 mmHg | 0 in | - | 260 W/m² | - |
| 1788132588 | 107° F | 29% | 757.7 mmHg | 0 in | - | 272 W/m² | - |
| 1788132284 | 107° F | 30% | 757.8 mmHg | 0 in | - | 288 W/m² | - |
* Rain latest hour (hover to see other rain measurements)
** Current wind speed in m/s (hover to see current wind gust speed)